Location: London
(51.5170°N, 0.1050°W)
Time: 06:11:57
(UTC+01:00)

ISS - Visible Passes

Search period start: 20 July 2018 00:00
Search period end: 30 July 2018 00:00
Orbit: 402 x 408 km, 51.6° (Epoch: 20 July)

Date Brightness Start Highest point End Pass type
(mag) Time Alt. Az. Time Alt. Az. Time Alt. Az.
20 Jul -3.9 01:13:46 10° W 01:17:04 86° N 01:20:23 10° E visible
20 Jul -3.9 02:50:17 10° W 02:53:33 65° SSW 02:56:50 10° ESE visible
20 Jul -3.2 22:45:38 10° SW 22:48:39 34° SSE 22:51:40 10° E visible
21 Jul -3.9 00:21:40 10° W 00:24:57 87° S 00:28:16 10° E visible
21 Jul -4.0 01:58:10 10° W 02:01:28 81° SSW 02:04:47 10° ESE visible
21 Jul -3.0 03:34:49 10° W 03:37:43 29° SSW 03:40:37 10° SSE visible
21 Jul -2.7 21:54:00 10° SSW 21:56:41 23° SSE 21:59:24 10° E visible
21 Jul -4.0 23:29:35 10° WSW 23:32:51 73° SSE 23:36:08 10° E visible
22 Jul -3.9 01:06:03 10° W 01:09:21 89° N 01:12:40 10° E visible
22 Jul -3.5 02:42:35 10° W 02:45:44 41° SSW 02:48:51 10° SE visible
22 Jul -1.7 04:20:50 10° SW 04:21:33 11° SW 04:22:16 10° SSW visible
22 Jul -3.8 22:37:33 10° WSW 22:40:46 55° SSE 22:44:00 10° E visible
23 Jul -3.9 00:13:55 10° W 00:17:13 85° N 00:20:32 10° E visible
23 Jul -3.7 01:50:26 10° W 01:53:20 54° SW 01:53:20 54° SW visible
23 Jul -3.3 21:45:37 10° SW 21:48:43 39° SSE 21:51:49 10° E visible
23 Jul -3.9 23:21:47 10° W 23:25:03 89° WNW 23:28:23 10° E visible
24 Jul -4.0 00:58:17 10° W 01:01:35 75° SSW 01:01:44 73° SSE visible
24 Jul -3.9 22:29:39 10° WSW 22:32:55 79° S 22:36:12 10° E visible
25 Jul -3.9 00:06:07 10° W 00:09:26 88° S 00:10:45 34° E visible
25 Jul -1.5 01:42:41 10° W 01:43:21 15° W 01:43:21 15° W visible
25 Jul -3.8 21:37:32 10° WSW 21:40:47 62° SSE 21:44:03 10° E visible
25 Jul -3.9 23:13:58 10° W 23:17:15 86° N 23:19:57 14° E visible
26 Jul -2.8 00:50:29 10° W 00:52:35 34° WSW 00:52:35 34° WSW visible
26 Jul -3.8 22:21:47 10° W 22:25:03 87° NNW 22:28:22 10° E visible
26 Jul -3.9 23:58:16 10° W 00:01:33 69° SSW 00:01:54 62° SSE visible
27 Jul -3.9 23:06:05 10° W 23:09:22 84° SSW 23:11:15 24° ESE visible
28 Jul -1.8 00:42:41 10° W 00:43:53 19° W 00:43:53 19° W visible
28 Jul -3.8 22:13:53 10° W 22:17:11 87° N 22:20:29 10° E visible
28 Jul -3.4 23:50:24 10° W 23:53:17 44° SW 23:53:17 44° SW visible
29 Jul -3.8 22:58:09 10° W 23:01:25 63° SSW 23:02:43 32° SE visible
